Azamara Quest — 9HOM8 — position and weather

sailwx.info

Track history (hours):
 
Tides and Currents Weather Stations Pressure Air Temp Water Temp Dewpoint Dewpoint Depression Visibility Wind Speed Wind Dir Waves Ship Positions

Azamara Quest

Last reported at 2018-May-23 04:35 UTC. Time now 2018-May-24 17:51 UTC.
Position N 43°42' E 007°17'.

Length 181 m; draft 5.9 m.

Type: Passenger vessel. MMSI: 256216000.

Date/timePositionNaut miles runAvg speedWind from/ knotsBaromVisibWave heightAir tempDewpointWater temp
2018-May-23 04:35N 43°42' E 007°17'0 1.4
2018-May-23 04:27N 43°41' E 007°17'2 3.8
2018-May-23 04:00N 43°40' E 007°17'611.7
2018-May-23 03:30N 43°34' E 007°17'713.2
2018-May-23 03:00N 43°27' E 007°18'612.7
2018-May-23 02:30N 43°21' E 007°19'712.8
2018-May-23 02:00N 43°15' E 007°20'153519.5
2018-May-23 02:00N 43°00' E 007°18'36 5.1 010 / 111016.010.8 18.016.317.0
2018-May-22 18:59N 43°34' E 007°31'712.8
2018-May-22 18:27N 43°41' E 007°28'0 0.0
2018-May-22 04:55N 43°41' E 007°28'5413.7
2018-May-22 01:00N 42°48' E 007°42'25 8.3 090 / 101011.010.8 19.019.017.0
2018-May-21 22:00N 43°00' E 007°12'1811.8 060 / 221011.010.8 19.0 9.618.0
2018-May-21 20:29N 43°17' E 007°07'612.0
2018-May-21 20:00N 43°23' E 007°05'612.4
2018-May-21 19:30N 43°29' E 007°02'4 6.7
2018-May-21 18:58N 43°32' E 007°01'0 0.0
2018-May-21 18:28N 43°32' E 007°01'0 0.0
2018-May-21 17:58N 43°32' E 007°01'0 0.0
2018-May-21 17:28N 43°32' E 007°01'0 0.0
2018-May-21 16:58N 43°32' E 007°01'0 0.0
2018-May-21 16:28N 43°32' E 007°01'0 0.0
2018-May-21 15:58N 43°32' E 007°01'0 0.0
2018-May-21 15:28N 43°32' E 007°01'0 0.1
2018-May-21 14:58N 43°32' E 007°01'0 0.0
2018-May-21 14:28N 43°32' E 007°01'0 0.0
2018-May-21 13:58N 43°32' E 007°01'0 0.0
2018-May-21 13:28N 43°32' E 007°01'0 0.0
2018-May-21 12:58N 43°32' E 007°01'0 0.0
2018-May-21 12:22N 43°32' E 007°01'0 0.0
2018-May-21 11:58N 43°32' E 007°01'0 0.0
2018-May-21 11:28N 43°32' E 007°01'0 0.0
2018-May-21 10:52N 43°32' E 007°01'0 0.0
2018-May-21 10:28N 43°32' E 007°01'0 0.1
2018-May-21 09:58N 43°32' E 007°01'0 0.0
2018-May-21 09:25N 43°32' E 007°01'0 0.0
2018-May-21 08:58N 43°32' E 007°01'0 0.0
2018-May-21 08:25N 43°32' E 007°01'0 0.0
2018-May-21 07:58N 43°32' E 007°01'0 0.0
2018-May-21 07:25N 43°32' E 007°01'0 0.0
2018-May-21 06:55N 43°32' E 007°01'0 0.0
2018-May-21 06:28N 43°32' E 007°01'0 0.0
2018-May-21 05:55N 43°32' E 007°01'0 0.0
2018-May-21 05:28N 43°32' E 007°01'2 5.4
2018-May-21 05:00N 43°30' E 007°02'510.6
2018-May-21 04:31N 43°26' E 007°06'612.0
2018-May-21 04:00N 43°22' E 007°12'612.0
2018-May-21 03:30N 43°18' E 007°19'812.2
2018-May-21 02:53N 43°13' E 007°27'512.3
2018-May-21 02:29N 43°10' E 007°32'612.4
2018-May-21 01:59N 43°06' E 007°38'612.4
2018-May-21 01:30N 43°01' E 007°43'917.2
2018-May-21 01:00N 42°54' E 007°36'34 1.7 050 / 251011.010.8 20.018.417.0
2018-May-20 04:38N 43°15' E 006°59'211.5
2018-May-20 04:30N 43°15' E 007°01'612.0
2018-May-20 04:00N 43°13' E 007°09'712.2
2018-May-20 03:24N 43°11' E 007°19'512.2
2018-May-20 03:00N 43°09' E 007°25'712.4
2018-May-20 02:27N 43°07' E 007°34'2811.4
2018-May-20 00:00N 43°06' E 008°12'717.4 320 / 51015.010.8 19.017.417.0
2018-May-19 23:37N 43°08' E 008°21'312.9
2018-May-19 23:22N 43°09' E 008°25'513.4
2018-May-19 23:01N 43°11' E 008°31'714.8
2018-May-19 22:30N 43°14' E 008°40'714.7
2018-May-19 22:01N 43°16' E 008°50'714.6
2018-May-19 21:30N 43°19' E 008°59'714.8
2018-May-19 21:01N 43°21' E 009°09'714.8
2018-May-19 20:31N 43°24' E 009°18'714.3
2018-May-19 20:01N 43°26' E 009°27'714.9
2018-May-19 19:31N 43°29' E 009°37'714.7
2018-May-19 19:01N 43°31' E 009°47'714.2
2018-May-19 18:31N 43°32' E 009°56'714.5
2018-May-19 18:00N 43°30' E 010°06'714.2
2018-May-19 17:30N 43°32' E 010°16'2 3.8
2018-May-19 17:00N 43°33' E 010°18'0 0.0
2018-May-19 16:30N 43°33' E 010°18'0 0.0
2018-May-19 15:57N 43°33' E 010°18'0 0.0
2018-May-19 15:30N 43°33' E 010°18'0 0.0
2018-May-19 14:54N 43°33' E 010°18'0 0.0
2018-May-19 14:27N 43°33' E 010°18'0 0.0
2018-May-19 13:57N 43°33' E 010°18'0 0.0
2018-May-19 13:30N 43°33' E 010°18'0 0.0
2018-May-19 13:00N 43°33' E 010°18'0 0.0
2018-May-19 12:30N 43°33' E 010°18'0 0.0
2018-May-19 12:00N 43°33' E 010°18'0 0.0
2018-May-19 11:30N 43°33' E 010°18'0 0.0
2018-May-19 11:00N 43°33' E 010°18'0 0.0
2018-May-19 10:30N 43°33' E 010°18'0 0.0
2018-May-19 10:00N 43°33' E 010°18'0 0.0
2018-May-19 09:27N 43°33' E 010°18'0 0.0
2018-May-19 08:57N 43°33' E 010°18'0 0.0
2018-May-19 08:30N 43°33' E 010°18'0 0.0
2018-May-19 07:57N 43°33' E 010°18'0 0.0
2018-May-19 07:30N 43°33' E 010°18'0 0.0
2018-May-19 06:57N 43°33' E 010°18'0 0.0
2018-May-19 06:21N 43°33' E 010°18'0 0.0
2018-May-19 05:57N 43°33' E 010°18'0 0.0
2018-May-19 05:30N 43°33' E 010°18'0 0.0
2018-May-19 05:00N 43°33' E 010°18'0 0.0
2018-May-19 04:30N 43°33' E 010°18'0 0.0
2018-May-19 04:00N 43°33' E 010°18'0 0.0
2018-May-19 03:30N 43°33' E 010°18'0 0.0
2018-May-19 03:00N 43°33' E 010°18'0 0.0
2018-May-19 02:30N 43°33' E 010°18'0 0.0
2018-May-19 02:00N 43°33' E 010°18'0 0.0
2018-May-19 01:30N 43°33' E 010°18'0 0.0
2018-May-19 01:00N 43°33' E 010°18'0 0.0
2018-May-19 00:30N 43°33' E 010°18'0 0.0
2018-May-19 00:00N 43°33' E 010°18'0 0.0
2018-May-18 23:30N 43°33' E 010°18'0 0.0
2018-May-18 23:00N 43°33' E 010°18'0 0.0
2018-May-18 22:30N 43°33' E 010°18'0 0.0
2018-May-18 22:00N 43°33' E 010°18'0 0.0
2018-May-18 21:30N 43°33' E 010°18'0 0.0
2018-May-18 21:00N 43°33' E 010°18'0 0.0
2018-May-18 20:27N 43°33' E 010°18'0 0.0
2018-May-18 20:00N 43°33' E 010°18'0 0.0
2018-May-18 19:30N 43°33' E 010°18'0 0.0
2018-May-18 19:00N 43°33' E 010°18'0 0.0
2018-May-18 18:30N 43°33' E 010°18'0 0.0
2018-May-18 17:57N 43°33' E 010°18'0 0.0
2018-May-18 17:30N 43°33' E 010°18'0 0.0
2018-May-18 17:00N 43°33' E 010°18'0 0.0
2018-May-18 16:30N 43°33' E 010°18'0 0.0
2018-May-18 15:57N 43°33' E 010°18'0 0.0
2018-May-18 15:30N 43°33' E 010°18'0 0.0
2018-May-18 15:00N 43°33' E 010°18'0 0.0
2018-May-18 14:24N 43°33' E 010°18'0 0.0
2018-May-18 13:57N 43°33' E 010°18'0 0.0
2018-May-18 13:27N 43°33' E 010°18'0 0.0
2018-May-18 13:00N 43°33' E 010°18'0 0.0
2018-May-18 12:30N 43°33' E 010°18'0 0.0
2018-May-18 12:00N 43°33' E 010°18'0 0.0
2018-May-18 11:27N 43°33' E 010°18'0 0.0
2018-May-18 11:00N 43°33' E 010°18'0 0.0
2018-May-18 10:30N 43°33' E 010°18'0 0.0
2018-May-18 10:00N 43°33' E 010°18'0 0.0
2018-May-18 09:30N 43°33' E 010°18'0 0.0
2018-May-18 08:57N 43°33' E 010°18'0 0.0
2018-May-18 08:30N 43°33' E 010°18'0 0.0
2018-May-18 07:57N 43°33' E 010°18'0 0.0
2018-May-18 07:30N 43°33' E 010°18'0 0.0
2018-May-18 07:00N 43°33' E 010°18'0 0.0
2018-May-18 06:30N 43°33' E 010°18'0 0.0
2018-May-18 06:00N 43°33' E 010°18'0 0.1
2018-May-18 05:30N 43°33' E 010°18'1 2.9
2018-May-18 05:00N 43°32' E 010°16'5 9.1
2018-May-18 04:30N 43°28' E 010°13'815.3
2018-May-18 04:00N 43°21' E 010°11'714.2
2018-May-18 03:30N 43°14' E 010°10'713.2
2018-May-18 03:00N 43°07' E 010°08'713.2
2018-May-18 02:30N 43°01' E 010°06'713.5
2018-May-18 02:00N 42°54' E 010°04'1818.0
2018-May-18 01:00N 42°36' E 010°00'721.6 1016.010.8 18.016.317.0
2018-May-18 00:41N 42°38' E 010°09'314.7
2018-May-18 00:27N 42°36' E 010°12'714.8
2018-May-18 00:00N 42°32' E 010°19'51 2.1
2018-May-17 00:00N 41°42' E 010°36'4411.1 220 / 101015.010.8 17.015.317.0
2018-May-16 20:00N 41°24' E 009°42'26113.7 240 / 141015.010.8 17.0 9.418.0
2018-May-16 01:00N 41°24' E 003°54'7116.6 260 / 101016.010.8 19.015.717.0
2018-May-15 20:44N 41°20' E 002°20'415.6
2018-May-15 20:30N 41°20' E 002°15'4 7.5
2018-May-15 19:57N 41°22' E 002°11'0 0.0
2018-May-15 19:15N 41°22' E 002°11'0 0.0
2018-May-15 15:27N 41°22' E 002°11'0 0.0
2018-May-15 09:03N 41°22' E 002°11'0 0.0
2018-May-15 08:45N 41°22' E 002°11'0 0.0
2018-May-15 08:15N 41°22' E 002°11'0 0.0
2018-May-15 07:57N 41°22' E 002°11'0 0.0
2018-May-15 07:27N 41°22' E 002°11'0 0.0
2018-May-15 06:51N 41°22' E 002°11'0 0.0
2018-May-15 06:27N 41°22' E 002°11'0 0.0
2018-May-15 05:45N 41°22' E 002°11'0 0.0
2018-May-15 05:27N 41°22' E 002°11'0 0.0
2018-May-15 04:57N 41°22' E 002°11'0 0.0
2018-May-15 04:27N 41°22' E 002°11'0 0.0
2018-May-15 00:57N 41°22' E 002°11'0 0.0
2018-May-15 00:03N 41°22' E 002°11'0 0.0
2018-May-14 23:39N 41°22' E 002°11'0 0.0
2018-May-14 23:15N 41°22' E 002°11'0 0.0
2018-May-14 22:21N 41°22' E 002°11'0 0.0
2018-May-14 21:57N 41°22' E 002°11'0 0.0
2018-May-14 21:27N 41°22' E 002°11'0 0.0
2018-May-14 20:57N 41°22' E 002°11'0 0.0
2018-May-14 20:27N 41°22' E 002°11'0 0.0
2018-May-14 19:57N 41°22' E 002°11'0 0.0
2018-May-14 18:39N 41°22' E 002°11'0 0.0
2018-May-14 17:21N 41°22' E 002°11'0 0.0
2018-May-14 12:45N 41°22' E 002°11'0 0.0
2018-May-14 12:15N 41°22' E 002°11'0 0.0
2018-May-14 11:45N 41°22' E 002°11'0 0.2
2018-May-14 11:19N 41°22' E 002°11'2 5.3
2018-May-14 11:00N 41°21' E 002°12'713.8
2018-May-14 10:30N 41°20' E 002°21'20114.9
2018-May-13 21:00N 42°48' E 006°24'3821.5 300 / 401006.0 5.4 18.010.618.0
2018-May-13 19:15N 43°14' E 007°01'418.1
2018-May-13 19:00N 43°17' E 007°05'1018.4
2018-May-13 18:29N 43°25' E 007°13'1218.3
2018-May-13 17:51N 43°34' E 007°23'8 1.6
2018-May-13 13:00N 43°42' E 007°24'   310 / 61011.010.8 23.018.317.0
Track history (hours):
 
Tides and Currents Weather Stations Pressure Air Temp Water Temp Dewpoint Dewpoint Depression Visibility Wind Speed Wind Dir Waves Ship Positions

Azamara Quest

Last reported at 2018-May-23 04:35 UTC. Time now 2018-May-24 17:51 UTC.
Position N 43°42' E 007°17'.

Length 181 m; draft 5.9 m.

Type: Passenger vessel. MMSI: 256216000.

Date/timePositionNaut miles runAvg speedWind from/ knotsBaromVisibWave heightAir tempDewpointWater temp
2018-May-23 04:35N 43°42' E 007°17'0 1.4
2018-May-23 04:27N 43°41' E 007°17'2 3.8
2018-May-23 04:00N 43°40' E 007°17'611.7
2018-May-23 03:30N 43°34' E 007°17'713.2
2018-May-23 03:00N 43°27' E 007°18'612.7
2018-May-23 02:30N 43°21' E 007°19'712.8
2018-May-23 02:00N 43°15' E 007°20'153519.5
2018-May-23 02:00N 43°00' E 007°18'36 5.1 010 / 111016.010.8 18.016.317.0
2018-May-22 18:59N 43°34' E 007°31'712.8
2018-May-22 18:27N 43°41' E 007°28'0 0.0
2018-May-22 04:55N 43°41' E 007°28'5413.7
2018-May-22 01:00N 42°48' E 007°42'25 8.3 090 / 101011.010.8 19.019.017.0
2018-May-21 22:00N 43°00' E 007°12'1811.8 060 / 221011.010.8 19.0 9.618.0
2018-May-21 20:29N 43°17' E 007°07'612.0
2018-May-21 20:00N 43°23' E 007°05'612.4
2018-May-21 19:30N 43°29' E 007°02'4 6.7
2018-May-21 18:58N 43°32' E 007°01'0 0.0
2018-May-21 18:28N 43°32' E 007°01'0 0.0
2018-May-21 17:58N 43°32' E 007°01'0 0.0
2018-May-21 17:28N 43°32' E 007°01'0 0.0
2018-May-21 16:58N 43°32' E 007°01'0 0.0
2018-May-21 16:28N 43°32' E 007°01'0 0.0
2018-May-21 15:58N 43°32' E 007°01'0 0.0
2018-May-21 15:28N 43°32' E 007°01'0 0.1
2018-May-21 14:58N 43°32' E 007°01'0 0.0
2018-May-21 14:28N 43°32' E 007°01'0 0.0
2018-May-21 13:58N 43°32' E 007°01'0 0.0
2018-May-21 13:28N 43°32' E 007°01'0 0.0
2018-May-21 12:58N 43°32' E 007°01'0 0.0
2018-May-21 12:22N 43°32' E 007°01'0 0.0
2018-May-21 11:58N 43°32' E 007°01'0 0.0
2018-May-21 11:28N 43°32' E 007°01'0 0.0
2018-May-21 10:52N 43°32' E 007°01'0 0.0
2018-May-21 10:28N 43°32' E 007°01'0 0.1
2018-May-21 09:58N 43°32' E 007°01'0 0.0
2018-May-21 09:25N 43°32' E 007°01'0 0.0
2018-May-21 08:58N 43°32' E 007°01'0 0.0
2018-May-21 08:25N 43°32' E 007°01'0 0.0
2018-May-21 07:58N 43°32' E 007°01'0 0.0
2018-May-21 07:25N 43°32' E 007°01'0 0.0
2018-May-21 06:55N 43°32' E 007°01'0 0.0
2018-May-21 06:28N 43°32' E 007°01'0 0.0
2018-May-21 05:55N 43°32' E 007°01'0 0.0
2018-May-21 05:28N 43°32' E 007°01'2 5.4
2018-May-21 05:00N 43°30' E 007°02'510.6
2018-May-21 04:31N 43°26' E 007°06'612.0
2018-May-21 04:00N 43°22' E 007°12'612.0
2018-May-21 03:30N 43°18' E 007°19'812.2
2018-May-21 02:53N 43°13' E 007°27'512.3
2018-May-21 02:29N 43°10' E 007°32'612.4
2018-May-21 01:59N 43°06' E 007°38'612.4
2018-May-21 01:30N 43°01' E 007°43'917.2
2018-May-21 01:00N 42°54' E 007°36'34 1.7 050 / 251011.010.8 20.018.417.0
2018-May-20 04:38N 43°15' E 006°59'211.5
2018-May-20 04:30N 43°15' E 007°01'612.0
2018-May-20 04:00N 43°13' E 007°09'712.2
2018-May-20 03:24N 43°11' E 007°19'512.2
2018-May-20 03:00N 43°09' E 007°25'712.4
2018-May-20 02:27N 43°07' E 007°34'2811.4
2018-May-20 00:00N 43°06' E 008°12'717.4 320 / 51015.010.8 19.017.417.0
2018-May-19 23:37N 43°08' E 008°21'312.9
2018-May-19 23:22N 43°09' E 008°25'513.4
2018-May-19 23:01N 43°11' E 008°31'714.8
2018-May-19 22:30N 43°14' E 008°40'714.7
2018-May-19 22:01N 43°16' E 008°50'714.6
2018-May-19 21:30N 43°19' E 008°59'714.8
2018-May-19 21:01N 43°21' E 009°09'714.8
2018-May-19 20:31N 43°24' E 009°18'714.3
2018-May-19 20:01N 43°26' E 009°27'714.9
2018-May-19 19:31N 43°29' E 009°37'714.7
2018-May-19 19:01N 43°31' E 009°47'714.2
2018-May-19 18:31N 43°32' E 009°56'714.5
2018-May-19 18:00N 43°30' E 010°06'714.2
2018-May-19 17:30N 43°32' E 010°16'2 3.8
2018-May-19 17:00N 43°33' E 010°18'0 0.0
2018-May-19 16:30N 43°33' E 010°18'0 0.0
2018-May-19 15:57N 43°33' E 010°18'0 0.0
2018-May-19 15:30N 43°33' E 010°18'0 0.0
2018-May-19 14:54N 43°33' E 010°18'0 0.0
2018-May-19 14:27N 43°33' E 010°18'0 0.0
2018-May-19 13:57N 43°33' E 010°18'0 0.0
2018-May-19 13:30N 43°33' E 010°18'0 0.0
2018-May-19 13:00N 43°33' E 010°18'0 0.0
2018-May-19 12:30N 43°33' E 010°18'0 0.0
2018-May-19 12:00N 43°33' E 010°18'0 0.0
2018-May-19 11:30N 43°33' E 010°18'0 0.0
2018-May-19 11:00N 43°33' E 010°18'0 0.0
2018-May-19 10:30N 43°33' E 010°18'0 0.0
2018-May-19 10:00N 43°33' E 010°18'0 0.0
2018-May-19 09:27N 43°33' E 010°18'0 0.0
2018-May-19 08:57N 43°33' E 010°18'0 0.0
2018-May-19 08:30N 43°33' E 010°18'0 0.0
2018-May-19 07:57N 43°33' E 010°18'0 0.0
2018-May-19 07:30N 43°33' E 010°18'0 0.0
2018-May-19 06:57N 43°33' E 010°18'0 0.0
2018-May-19 06:21N 43°33' E 010°18'0 0.0
2018-May-19 05:57N 43°33' E 010°18'0 0.0
2018-May-19 05:30N 43°33' E 010°18'0 0.0
2018-May-19 05:00N 43°33' E 010°18'0 0.0
2018-May-19 04:30N 43°33' E 010°18'0 0.0
2018-May-19 04:00N 43°33' E 010°18'0 0.0
2018-May-19 03:30N 43°33' E 010°18'0 0.0
2018-May-19 03:00N 43°33' E 010°18'0 0.0
2018-May-19 02:30N 43°33' E 010°18'0 0.0
2018-May-19 02:00N 43°33' E 010°18'0 0.0
2018-May-19 01:30N 43°33' E 010°18'0 0.0
2018-May-19 01:00N 43°33' E 010°18'0 0.0
2018-May-19 00:30N 43°33' E 010°18'0 0.0
2018-May-19 00:00N 43°33' E 010°18'0 0.0
2018-May-18 23:30N 43°33' E 010°18'0 0.0
2018-May-18 23:00N 43°33' E 010°18'0 0.0
2018-May-18 22:30N 43°33' E 010°18'0 0.0
2018-May-18 22:00N 43°33' E 010°18'0 0.0
2018-May-18 21:30N 43°33' E 010°18'0 0.0
2018-May-18 21:00N 43°33' E 010°18'0 0.0
2018-May-18 20:27N 43°33' E 010°18'0 0.0
2018-May-18 20:00N 43°33' E 010°18'0 0.0
2018-May-18 19:30N 43°33' E 010°18'0 0.0
2018-May-18 19:00N 43°33' E 010°18'0 0.0
2018-May-18 18:30N 43°33' E 010°18'0 0.0
2018-May-18 17:57N 43°33' E 010°18'0 0.0
2018-May-18 17:30N 43°33' E 010°18'0 0.0
2018-May-18 17:00N 43°33' E 010°18'0 0.0
2018-May-18 16:30N 43°33' E 010°18'0 0.0
2018-May-18 15:57N 43°33' E 010°18'0 0.0
2018-May-18 15:30N 43°33' E 010°18'0 0.0
2018-May-18 15:00N 43°33' E 010°18'0 0.0
2018-May-18 14:24N 43°33' E 010°18'0 0.0
2018-May-18 13:57N 43°33' E 010°18'0 0.0
2018-May-18 13:27N 43°33' E 010°18'0 0.0
2018-May-18 13:00N 43°33' E 010°18'0 0.0
2018-May-18 12:30N 43°33' E 010°18'0 0.0
2018-May-18 12:00N 43°33' E 010°18'0 0.0
2018-May-18 11:27N 43°33' E 010°18'0 0.0
2018-May-18 11:00N 43°33' E 010°18'0 0.0
2018-May-18 10:30N 43°33' E 010°18'0 0.0
2018-May-18 10:00N 43°33' E 010°18'0 0.0
2018-May-18 09:30N 43°33' E 010°18'0 0.0
2018-May-18 08:57N 43°33' E 010°18'0 0.0
2018-May-18 08:30N 43°33' E 010°18'0 0.0
2018-May-18 07:57N 43°33' E 010°18'0 0.0
2018-May-18 07:30N 43°33' E 010°18'0 0.0
2018-May-18 07:00N 43°33' E 010°18'0 0.0
2018-May-18 06:30N 43°33' E 010°18'0 0.0
2018-May-18 06:00N 43°33' E 010°18'0 0.1
2018-May-18 05:30N 43°33' E 010°18'1 2.9
2018-May-18 05:00N 43°32' E 010°16'5 9.1
2018-May-18 04:30N 43°28' E 010°13'815.3
2018-May-18 04:00N 43°21' E 010°11'714.2
2018-May-18 03:30N 43°14' E 010°10'713.2
2018-May-18 03:00N 43°07' E 010°08'713.2
2018-May-18 02:30N 43°01' E 010°06'713.5
2018-May-18 02:00N 42°54' E 010°04'1818.0
2018-May-18 01:00N 42°36' E 010°00'721.6 1016.010.8 18.016.317.0
2018-May-18 00:41N 42°38' E 010°09'314.7
2018-May-18 00:27N 42°36' E 010°12'714.8
2018-May-18 00:00N 42°32' E 010°19'51 2.1
2018-May-17 00:00N 41°42' E 010°36'4411.1 220 / 101015.010.8 17.015.317.0
2018-May-16 20:00N 41°24' E 009°42'26113.7 240 / 141015.010.8 17.0 9.418.0
2018-May-16 01:00N 41°24' E 003°54'7116.6 260 / 101016.010.8 19.015.717.0
2018-May-15 20:44N 41°20' E 002°20'415.6
2018-May-15 20:30N 41°20' E 002°15'4 7.5
2018-May-15 19:57N 41°22' E 002°11'0 0.0
2018-May-15 19:15N 41°22' E 002°11'0 0.0
2018-May-15 15:27N 41°22' E 002°11'0 0.0
2018-May-15 09:03N 41°22' E 002°11'0 0.0
2018-May-15 08:45N 41°22' E 002°11'0 0.0
2018-May-15 08:15N 41°22' E 002°11'0 0.0
2018-May-15 07:57N 41°22' E 002°11'0 0.0
2018-May-15 07:27N 41°22' E 002°11'0 0.0
2018-May-15 06:51N 41°22' E 002°11'0 0.0
2018-May-15 06:27N 41°22' E 002°11'0 0.0
2018-May-15 05:45N 41°22' E 002°11'0 0.0
2018-May-15 05:27N 41°22' E 002°11'0 0.0
2018-May-15 04:57N 41°22' E 002°11'0 0.0
2018-May-15 04:27N 41°22' E 002°11'0 0.0
2018-May-15 00:57N 41°22' E 002°11'0 0.0
2018-May-15 00:03N 41°22' E 002°11'0 0.0
2018-May-14 23:39N 41°22' E 002°11'0 0.0
2018-May-14 23:15N 41°22' E 002°11'0 0.0
2018-May-14 22:21N 41°22' E 002°11'0 0.0
2018-May-14 21:57N 41°22' E 002°11'0 0.0
2018-May-14 21:27N 41°22' E 002°11'0 0.0
2018-May-14 20:57N 41°22' E 002°11'0 0.0
2018-May-14 20:27N 41°22' E 002°11'0 0.0
2018-May-14 19:57N 41°22' E 002°11'0 0.0
2018-May-14 18:39N 41°22' E 002°11'0 0.0
2018-May-14 17:21N 41°22' E 002°11'0 0.0
2018-May-14 12:45N 41°22' E 002°11'0 0.0
2018-May-14 12:15N 41°22' E 002°11'0 0.0
2018-May-14 11:45N 41°22' E 002°11'0 0.2
2018-May-14 11:19N 41°22' E 002°11'2 5.3
2018-May-14 11:00N 41°21' E 002°12'713.8
2018-May-14 10:30N 41°20' E 002°21'20114.9
2018-May-13 21:00N 42°48' E 006°24'3821.5 300 / 401006.0 5.4 18.010.618.0
2018-May-13 19:15N 43°14' E 007°01'418.1
2018-May-13 19:00N 43°17' E 007°05'1018.4
2018-May-13 18:29N 43°25' E 007°13'1218.3
2018-May-13 17:51N 43°34' E 007°23'8 1.6
2018-May-13 13:00N 43°42' E 007°24'   310 / 61011.010.8 23.018.317.0

Dump ship's entire track history